This is the latest recevied weather packets stored in our database for station/object VU3OPZ-13. If no packets are shown the sender has not sent any weather packets the latest 10 day(s).
| Time | Temp. | Humidity | Pressure | Rain* | Wind** | Luminosity | Snow |
|---|---|---|---|---|---|---|---|
| 1788131293 | 20.56° C | 92% | 1010 hPa | 0 mm | - | - | - |
| 1788129489 | 20.56° C | 92% | 1010 hPa | 0 mm | - | - | - |
| 1788127684 | 20.56° C | 93% | 1010 hPa | 0 mm | - | - | - |
| 1788125880 | 20.56° C | 93% | 1010 hPa | 0 mm | - | - | - |
| 1788124076 | 21.11° C | 91% | 1011 hPa | 0 mm | - | - | - |
| 1788122272 | 21.11° C | 91% | 1011 hPa | 0 mm | - | - | - |
| 1788120467 | 21.11° C | 89% | 1011 hPa | 0 mm | - | - | - |
| 1788118663 | 21.11° C | 89% | 1011 hPa | 0 mm | - | - | - |
| 1788116859 | 21.67° C | 87% | 1012 hPa | 0 mm | - | - | - |
| 1788115054 | 21.67° C | 87% | 1012 hPa | 0 mm | - | - | - |
| 1788113250 | 21.67° C | 85% | 1012 hPa | 0 mm | - | - | - |
| 1788111446 | 21.67° C | 85% | 1012 hPa | 0 mm | - | - | - |
| 1788109641 | 22.22° C | 84% | 1013 hPa | 0 mm | - | - | - |
| 1788107837 | 22.22° C | 84% | 1013 hPa | 0 mm | - | - | - |
| 1788106032 | 22.78° C | 82% | 1013 hPa | 0 mm | - | - | - |
| 1788104228 | 22.78° C | 82% | 1013 hPa | 0 mm | - | - | - |
| 1788102423 | 23.33° C | 81% | 1012 hPa | 0 mm | - | - | - |
| 1788100619 | 22.78° C | 81% | 1012 hPa | 0 mm | - | - | - |
| 1788098814 | 23.89° C | 77% | 1012 hPa | 0 mm | - | - | - |
| 1788097009 | 23.89° C | 77% | 1012 hPa | 0 mm | - | - | - |
| 1788095205 | 25° C | 71% | 1011 hPa | 0 mm | - | - | - |
| 1788093401 | 24.44° C | 74% | 1010 hPa | 0 mm | - | - | - |
| 1788091597 | 25.56° C | 67% | 1010 hPa | 0 mm | - | - | - |
| 1788089792 | 25.56° C | 66% | 1010 hPa | 0 mm | - | - | - |
| 1788087988 | 26.67° C | 62% | 1009 hPa | 0 mm | - | - | - |
* Rain latest hour (hover to see other rain measurements)
** Current wind speed in m/s (hover to see current wind gust speed)